Voltar ao catálogo

STARLINK-5535

AtivoComunicaçõesSSO
NORAD 56356·PAYLOAD·🇺🇸 United States

Lançado Apr 27, 2023 de Vandenberg Space Force Base

Loading…

Próximas Passagens (próximas 24 horas)

TLE

AtualizadoSource: CelesTrak SupGP

Época: Sep 14, 2026, 20:37 UTC

1 56356C 23058AR  26257.85951389  .00066441  00000+0  20627-2 0  2579
2 56356  97.2846 254.6571 0001522  87.9104  70.1127 15.33401957    19

Acompanhe STARLINK-5535 em tempo real com AllMySat

Download on the App Store